Archiv-/Tagesdaten

--Timestamp---	Temp	Chill	HIndex	Humid	Dewpt	Wind	HiWind	WindDir	Rain	Barom	Solar	ET	UV
--------------	----	-----	------	-----	-----	----	------	-------	----	-----	-----	--	--
20070908 00:05	11.6	11.6	11.6	93	10.5	5	10	270	0.00	1024.521	0	0.000	0
20070908 00:10	11.6	11.6	11.6	93	10.5	5	10	270	0.00	1024.589	0	0.000	0
20070908 00:15	11.6	11.6	11.6	93	10.5	5	10	270	0.00	1024.589	0	0.000	0
20070908 00:20	11.6	11.6	11.6	93	10.5	5	8	270	0.00	1024.555	0	0.000	0
20070908 00:25	11.6	11.6	11.6	93	10.5	5	8	270	0.00	1024.521	0	0.000	0
20070908 00:30	11.6	11.6	11.6	93	10.5	5	8	270	0.00	1024.453	0	0.000	0
20070908 00:35	11.6	11.6	11.6	93	10.5	5	8	247	0.00	1024.521	0	0.000	0
20070908 00:40	11.6	11.6	11.6	93	10.5	5	10	247	0.00	1024.521	0	0.000	0
20070908 00:45	11.6	11.6	11.6	93	10.5	3	10	270	0.00	1024.453	0	0.000	0
20070908 00:50	11.6	11.6	11.6	93	10.5	5	8	247	0.00	1024.453	0	0.000	0
20070908 00:55	11.6	11.6	11.6	93	10.5	5	10	225	0.00	1024.453	0	0.000	0
20070908 01:00	11.6	11.6	11.6	93	10.5	3	6	270	0.00	1024.555	0	0.000	0
20070908 01:05	11.6	11.6	11.6	93	10.5	5	8	270	0.00	1024.521	0	0.000	0
20070908 01:10	11.6	11.6	11.6	93	10.5	5	10	270	0.00	1024.419	0	0.000	0
20070908 01:15	11.6	11.6	11.6	93	10.5	5	14	270	0.00	1024.521	0	0.000	0
20070908 01:20	11.6	11.6	11.6	93	10.5	5	11	270	0.00	1024.521	0	0.000	0
20070908 01:25	11.6	11.6	11.6	93	10.5	5	10	270	0.00	1024.453	0	0.000	0
20070908 01:30	11.6	11.6	11.6	93	10.5	5	13	292	0.00	1024.453	0	0.000	0
20070908 01:35	11.5	11.5	11.5	93	10.4	5	11	270	0.00	1024.453	0	0.000	0
20070908 01:40	11.5	11.5	11.5	93	10.4	5	8	292	0.00	1024.453	0	0.000	0
20070908 01:45	11.4	11.4	11.4	93	10.4	5	11	292	0.00	1024.453	0	0.000	0
20070908 01:50	11.4	11.4	11.4	93	10.4	5	11	270	0.00	1024.453	0	0.000	0
20070908 01:55	11.4	11.4	11.4	93	10.4	5	8	270	0.00	1024.352	0	0.000	0
20070908 02:00	11.4	11.4	11.4	93	10.4	3	8	270	0.00	1024.284	0	0.000	0
20070908 02:05	11.4	11.4	11.4	93	10.4	3	8	270	0.00	1024.182	0	0.000	0
20070908 02:10	11.4	11.4	11.4	93	10.4	5	11	270	0.00	1024.148	0	0.000	0
20070908 02:15	11.4	11.4	11.4	93	10.4	3	10	270	0.00	1024.182	0	0.000	0
20070908 02:20	11.4	11.4	11.4	93	10.4	3	10	247	0.00	1024.148	0	0.000	0
20070908 02:25	11.4	11.4	11.4	93	10.4	5	11	270	0.00	1024.148	0	0.000	0
20070908 02:30	11.4	11.4	11.4	93	10.4	5	10	270	0.00	1024.013	0	0.000	0
20070908 02:35	11.4	11.4	11.4	93	10.4	5	10	270	0.00	1024.047	0	0.000	0
20070908 02:40	11.4	11.4	11.4	93	10.4	5	8	270	0.00	1024.013	0	0.000	0
20070908 02:45	11.4	11.4	11.4	93	10.4	3	8	270	0.00	1023.979	0	0.000	0
20070908 02:50	11.4	11.4	11.4	93	10.4	5	8	270	0.00	1023.945	0	0.000	0
20070908 02:55	11.4	11.4	11.4	93	10.4	3	10	270	0.00	1023.945	0	0.000	0
20070908 03:00	11.4	11.4	11.4	93	10.4	3	8	247	0.00	1023.878	0	0.000	0
20070908 03:05	11.4	11.4	11.4	93	10.4	5	10	270	0.00	1023.844	0	0.000	0
20070908 03:10	11.4	11.4	11.4	93	10.3	5	10	270	0.00	1023.878	0	0.000	0
20070908 03:15	11.4	11.4	11.4	93	10.3	3	6	270	0.00	1023.810	0	0.000	0
20070908 03:20	11.4	11.4	11.4	93	10.3	5	10	270	0.00	1023.810	0	0.000	0
20070908 03:25	11.4	11.4	11.4	93	10.3	2	6	247	0.00	1023.776	0	0.000	0
20070908 03:30	11.4	11.4	11.4	93	10.3	3	10	270	0.00	1023.674	0	0.000	0
20070908 03:35	11.4	11.4	11.4	93	10.3	5	10	270	0.00	1023.640	0	0.000	0
20070908 03:40	11.4	11.4	11.4	93	10.3	5	10	247	0.00	1023.607	0	0.000	0
20070908 03:45	11.4	11.4	11.4	93	10.3	3	6	270	0.00	1023.539	0	0.000	0
20070908 03:50	11.3	11.3	11.3	93	10.2	3	6	270	0.00	1023.607	0	0.000	0
20070908 03:55	11.3	11.3	11.3	93	10.2	3	6	270	0.00	1023.708	0	0.000	0
20070908 04:00	11.3	11.3	11.3	93	10.2	3	6	247	0.00	1023.776	0	0.000	0
20070908 04:05	11.3	11.3	11.3	93	10.2	3	8	247	0.00	1023.640	0	0.000	0
20070908 04:10	11.3	11.3	11.3	93	10.2	5	8	247	0.00	1023.607	0	0.000	0
20070908 04:15	11.3	11.3	11.3	93	10.2	3	6	270	0.00	1023.573	0	0.000	0
20070908 04:20	11.3	11.3	11.3	93	10.2	5	10	270	0.00	1023.640	0	0.000	0
20070908 04:25	11.3	11.3	11.3	93	10.2	5	14	270	0.00	1023.640	0	0.000	0
20070908 04:30	11.3	11.3	11.3	93	10.2	5	11	270	0.00	1023.607	0	0.000	0
20070908 04:35	11.3	11.3	11.3	93	10.2	5	8	270	0.00	1023.640	0	0.000	0
20070908 04:40	11.3	11.3	11.3	93	10.2	5	8	270	0.00	1023.573	0	0.000	0
20070908 04:45	11.3	11.3	11.3	93	10.2	5	8	270	0.00	1023.573	0	0.000	0
20070908 04:50	11.3	11.3	11.3	93	10.2	5	10	270	0.00	1023.573	0	0.000	0
20070908 04:55	11.3	11.3	11.3	93	10.2	5	10	270	0.00	1023.640	0	0.000	0
20070908 05:00	11.3	11.3	11.3	93	10.2	3	8	292	0.00	1023.640	0	0.000	0
20070908 05:05	11.3	11.3	11.3	93	10.2	3	8	270	0.00	1023.776	0	0.000	0
20070908 05:10	11.3	11.3	11.3	93	10.2	5	8	270	0.00	1023.708	0	0.000	0
20070908 05:15	11.3	11.3	11.3	93	10.2	3	8	270	0.00	1023.708	0	0.000	0
20070908 05:20	11.3	11.3	11.3	93	10.2	5	8	270	0.00	1023.640	0	0.000	0
20070908 05:25	11.3	11.3	11.3	93	10.2	5	8	270	0.00	1023.708	0	0.000	0
20070908 05:30	11.3	11.3	11.3	93	10.2	5	8	270	0.00	1023.674	0	0.000	0
20070908 05:35	11.3	11.3	11.3	93	10.2	3	8	270	0.00	1023.573	0	0.000	0
20070908 05:40	11.3	11.3	11.3	93	10.2	3	8	270	0.00	1023.539	0	0.000	0
20070908 05:45	11.3	11.3	11.3	93	10.2	3	6	270	0.00	1023.505	0	0.000	0
20070908 05:50	11.3	11.3	11.3	93	10.2	3	8	270	0.00	1023.471	0	0.000	0
20070908 05:55	11.2	11.2	11.2	93	10.1	3	6	270	0.00	1023.505	0	0.000	0
20070908 06:00	11.2	11.2	11.2	93	10.1	3	8	270	0.00	1023.573	0	0.000	0
20070908 06:05	11.2	11.2	11.2	93	10.1	3	8	270	0.00	1023.573	0	0.000	0
20070908 06:10	11.2	11.2	11.2	94	10.3	2	5	270	0.00	1023.573	0	0.000	0
20070908 06:15	11.2	11.2	11.2	94	10.3	2	6	270	0.00	1023.505	0	0.000	0
20070908 06:20	11.2	11.2	11.2	94	10.3	3	6	270	0.00	1023.471	0	0.000	0
20070908 06:25	11.2	11.2	11.2	93	10.1	3	6	270	0.00	1023.471	0	0.000	0
20070908 06:30	11.2	11.2	11.2	93	10.1	2	6	270	0.00	1023.505	0	0.000	0
20070908 06:35	11.2	11.2	11.2	94	10.2	3	8	270	0.00	1023.471	0	0.000	0
20070908 06:40	11.2	11.2	11.2	94	10.2	3	6	247	0.00	1023.437	0	0.000	0
20070908 06:45	11.2	11.2	11.2	94	10.2	3	8	247	0.00	1023.370	0	0.000	0
20070908 06:50	11.2	11.2	11.2	94	10.2	3	6	247	0.00	1023.403	0	0.000	0
20070908 06:55	11.2	11.2	11.2	94	10.3	3	8	247	0.00	1023.370	0	0.000	0
20070908 07:00	11.2	11.2	11.2	94	10.3	3	10	247	0.00	1023.437	1	0.000	0
20070908 07:05	11.2	11.2	11.2	94	10.3	5	10	270	0.00	1023.471	3	0.000	0
20070908 07:10	11.3	11.3	11.3	93	10.2	5	10	247	0.00	1023.437	8	0.000	0
20070908 07:15	11.3	11.3	11.3	93	10.2	5	10	270	0.00	1023.471	11	0.000	0
20070908 07:20	11.3	11.3	11.3	93	10.2	3	8	270	0.00	1023.505	12	0.000	0
20070908 07:25	11.3	11.3	11.3	93	10.2	3	8	270	0.00	1023.539	13	0.000	0
20070908 07:30	11.3	11.3	11.3	93	10.2	5	8	270	0.00	1023.607	12	0.000	0
20070908 07:35	11.4	11.4	11.4	93	10.3	5	10	270	0.00	1023.505	12	0.000	0
20070908 07:40	11.4	11.4	11.4	93	10.3	5	11	270	0.00	1023.640	13	0.000	0
20070908 07:45	11.4	11.4	11.4	93	10.3	3	8	270	0.00	1023.640	17	0.000	0
20070908 07:50	11.4	11.4	11.4	93	10.4	5	10	270	0.00	1023.640	21	0.000	0
20070908 07:55	11.4	11.4	11.4	93	10.4	5	11	270	0.00	1023.607	27	0.000	0
20070908 08:00	11.5	11.5	11.5	93	10.4	5	8	270	0.00	1023.607	24	0.000	0
20070908 08:05	11.5	11.5	11.5	93	10.4	6	14	292	0.00	1023.640	29	0.000	0
20070908 08:10	11.6	11.6	11.6	93	10.5	5	10	270	0.00	1023.640	38	0.000	0
20070908 08:15	11.6	11.6	11.6	93	10.5	6	10	270	0.00	1023.505	45	0.000	0
20070908 08:20	11.6	11.6	11.6	92	10.4	5	14	270	0.00	1023.539	44	0.000	0
20070908 08:25	11.6	11.6	11.6	92	10.4	5	14	270	0.00	1023.539	43	0.000	0
20070908 08:30	11.7	11.7	11.7	92	10.4	3	10	270	0.00	1023.539	49	0.000	0
20070908 08:35	11.7	11.7	11.7	92	10.4	6	10	247	0.00	1023.505	50	0.000	0
20070908 08:40	11.7	11.7	11.7	92	10.5	5	10	270	0.00	1023.539	60	0.000	0
20070908 08:45	11.8	11.8	11.8	92	10.5	5	10	270	0.00	1023.437	69	0.000	0
20070908 08:50	11.8	11.8	11.8	92	10.5	6	11	270	0.00	1023.403	77	0.000	0
20070908 08:55	11.8	11.8	11.8	91	10.4	8	14	270	0.00	1023.403	65	0.000	0
20070908 09:00	11.9	11.9	11.9	92	10.6	6	11	270	0.00	1023.437	64	0.020	0
20070908 09:05	11.9	11.9	11.9	92	10.6	5	10	270	0.00	1023.471	53	0.000	0
20070908 09:10	11.9	11.9	11.9	91	10.5	8	18	270	0.00	1023.370	56	0.000	0
20070908 09:15	11.9	11.9	11.9	91	10.5	8	14	270	0.00	1023.403	62	0.000	0
20070908 09:20	11.9	11.9	11.9	91	10.5	8	16	270	0.00	1023.403	58	0.000	0
20070908 09:25	11.9	11.9	11.9	91	10.5	6	19	270	0.00	1023.370	74	0.000	0
20070908 09:30	12.0	12.0	12.0	91	10.6	6	11	292	0.00	1023.471	81	0.000	0
20070908 09:35	12.1	12.1	12.1	91	10.6	5	10	270	0.00	1023.403	84	0.000	0
20070908 09:40	12.2	12.2	12.2	91	10.7	6	13	270	0.00	1023.370	103	0.000	1
20070908 09:45	12.2	12.2	12.2	91	10.8	6	13	270	0.00	1023.370	110	0.000	1
20070908 09:50	12.3	12.3	12.3	91	10.8	6	13	292	0.00	1023.336	117	0.000	1
20070908 09:55	12.3	12.3	12.3	91	10.8	6	18	270	0.00	1023.403	126	0.000	1
20070908 10:00	12.3	12.3	12.3	91	10.9	6	11	270	0.00	1023.403	124	0.040	1
20070908 10:05	12.4	12.4	12.4	90	10.8	6	14	270	0.00	1023.370	120	0.000	1
20070908 10:10	12.4	12.4	12.4	90	10.8	8	16	270	0.00	1023.370	122	0.000	1
20070908 10:15	12.4	12.4	12.4	91	11.0	6	16	270	0.00	1023.336	116	0.000	1
20070908 10:20	12.4	12.4	12.4	90	10.8	6	11	270	0.00	1023.302	95	0.000	1
20070908 10:25	12.4	12.4	12.4	90	10.8	6	11	270	0.00	1023.268	91	0.000	1
20070908 10:30	12.3	12.3	12.3	90	10.7	6	13	270	0.00	1023.200	113	0.000	1
20070908 10:35	12.3	12.3	12.3	91	10.9	8	16	270	0.00	1023.200	136	0.000	1
20070908 10:40	12.3	12.3	12.3	91	10.8	5	14	270	0.00	1023.166	105	0.000	1
20070908 10:45	12.3	12.3	12.3	91	10.8	6	11	270	0.00	1023.065	98	0.000	1
20070908 10:50	12.3	12.3	12.3	90	10.7	5	14	270	0.00	1023.065	128	0.000	1
20070908 10:55	12.4	12.4	12.4	90	10.8	8	16	270	0.00	1023.065	119	0.000	1
20070908 11:00	12.5	12.5	12.5	91	11.1	6	11	270	0.00	1023.065	112	0.040	1
20070908 11:05	12.6	12.6	12.6	89	10.8	10	18	270	0.00	1022.895	104	0.000	1
20070908 11:10	12.6	12.6	12.6	90	11.0	8	11	270	0.00	1022.862	110	0.000	1
20070908 11:15	12.6	12.6	12.6	92	11.3	6	18	270	0.00	1022.895	144	0.000	1
20070908 11:20	12.8	12.8	12.8	89	11.0	6	16	270	0.00	1022.862	187	0.000	2
20070908 11:25	12.9	12.9	12.9	88	11.0	6	11	270	0.00	1022.828	216	0.000	2
20070908 11:30	13.1	13.1	13.1	88	11.2	5	10	247	0.00	1022.862	191	0.000	2
20070908 11:35	13.3	13.3	13.3	87	11.2	5	11	247	0.00	1022.862	234	0.000	2
20070908 11:40	13.4	13.4	13.4	86	11.1	8	16	270	0.00	1022.862	195	0.000	2
20070908 11:45	13.4	13.4	13.4	86	11.1	5	11	225	0.00	1022.692	206	0.000	2
20070908 11:50	13.4	13.4	13.4	86	11.1	6	14	247	0.00	1022.557	113	0.000	1
20070908 11:55	13.4	13.4	13.4	85	10.9	8	18	247	0.00	1022.557	143	0.000	1
20070908 12:00	13.3	13.3	13.3	85	10.9	6	10	247	0.00	1022.523	83	0.080	1
20070908 12:05	13.3	13.3	13.3	85	10.8	5	11	270	0.00	1022.557	64	0.000	1
20070908 12:10	13.2	13.2	13.2	85	10.8	5	11	270	0.00	1022.523	50	0.000	0
20070908 12:15	13.2	13.2	13.2	86	10.9	5	10	270	0.00	1022.455	36	0.000	0
20070908 12:20	13.1	13.1	13.1	87	11.0	3	10	247	0.00	1022.489	41	0.000	0
20070908 12:25	13.0	13.0	13.0	87	10.9	6	14	247	0.00	1022.557	37	0.000	0
20070908 12:30	12.9	12.9	12.9	88	11.0	5	10	270	0.00	1022.557	64	0.000	0
20070908 12:35	12.9	12.9	12.9	89	11.2	6	13	270	0.00	1022.591	82	0.000	1
20070908 12:40	12.9	12.9	12.9	89	11.1	6	14	270	0.00	1022.591	91	0.000	1
20070908 12:45	12.9	12.9	12.9	89	11.1	8	11	270	0.00	1022.625	124	0.000	1
20070908 12:50	12.9	12.9	12.9	89	11.2	6	13	270	0.00	1022.658	155	0.000	2
20070908 12:55	13.1	13.1	13.1	89	11.3	6	11	270	0.00	1022.625	170	0.000	2
20070908 13:00	13.3	13.3	13.3	88	11.3	6	16	270	0.00	1022.591	239	0.040	2
20070908 13:05	13.6	13.6	13.6	86	11.3	8	18	270	0.00	1022.489	332	0.000	3
20070908 13:10	13.8	13.8	13.8	85	11.3	8	19	270	0.00	1022.421	293	0.000	3
20070908 13:15	14.0	14.0	14.0	84	11.3	8	18	270	0.00	1022.354	244	0.000	2
20070908 13:20	14.1	14.1	14.1	83	11.2	10	19	270	0.00	1022.320	218	0.000	2
20070908 13:25	14.1	14.1	14.1	83	11.3	6	14	247	0.00	1022.252	196	0.000	2
20070908 13:30	14.2	14.2	14.2	82	11.2	8	19	270	0.00	1022.320	205	0.000	2
20070908 13:35	14.3	14.3	14.3	83	11.5	6	13	247	0.00	1022.320	224	0.000	2
20070908 13:40	14.4	14.4	14.4	81	11.2	6	19	270	0.00	1022.252	225	0.000	2
20070908 13:45	14.4	14.4	14.4	81	11.2	8	14	270	0.00	1022.252	173	0.000	2
20070908 13:50	14.4	14.4	14.4	80	11.0	8	16	270	0.00	1022.252	139	0.000	1
20070908 13:55	14.3	14.3	14.3	79	10.7	8	16	270	0.00	1022.252	146	0.000	2
20070908 14:00	14.3	14.3	14.3	80	10.9	8	18	270	0.00	1022.252	136	0.100	1
20070908 14:05	14.2	14.2	14.2	80	10.8	6	11	270	0.00	1022.320	84	0.000	1
20070908 14:10	14.2	14.2	14.2	83	11.3	6	14	270	0.00	1022.252	62	0.000	0
20070908 14:15	13.9	13.9	13.9	84	11.3	6	10	270	0.00	1022.218	96	0.000	1
20070908 14:20	13.8	13.8	13.8	84	11.1	6	14	270	0.00	1022.150	88	0.000	1
20070908 14:25	13.7	13.7	13.7	85	11.2	5	11	270	0.00	1022.184	67	0.000	1
20070908 14:30	13.5	13.5	13.5	86	11.2	5	10	270	0.00	1022.286	76	0.000	1
20070908 14:35	13.5	13.5	13.5	86	11.2	5	10	270	0.00	1022.218	127	0.000	1
20070908 14:40	13.6	13.6	13.6	86	11.3	5	13	247	0.00	1022.184	133	0.000	1
20070908 14:45	13.7	13.7	13.7	84	11.0	6	11	270	0.00	1022.083	90	0.000	1
20070908 14:50	13.7	13.7	13.7	84	11.1	5	11	270	0.00	1022.015	60	0.000	0
20070908 14:55	13.7	13.7	13.7	85	11.2	6	14	270	0.00	1022.049	63	0.000	1
20070908 15:00	13.7	13.7	13.7	84	11.0	6	14	270	0.00	1022.015	78	0.040	1
20070908 15:05	13.7	13.7	13.7	85	11.2	5	8	270	0.00	1022.184	77	0.000	1
20070908 15:10	13.7	13.7	13.7	85	11.2	3	8	247	0.00	1022.117	63	0.000	1
20070908 15:15	13.7	13.7	13.7	85	11.2	5	10	270	0.00	1022.083	60	0.000	0
20070908 15:20	13.6	13.6	13.6	85	11.1	5	10	270	0.00	1022.015	51	0.000	0
20070908 15:25	13.6	13.6	13.6	84	11.0	5	10	270	0.00	1021.913	65	0.000	1
20070908 15:30	13.6	13.6	13.6	85	11.1	5	10	270	0.00	1021.913	85	0.000	1
20070908 15:35	13.7	13.7	13.7	84	11.0	3	6	270	0.00	1021.846	95	0.000	1
20070908 15:40	13.7	13.7	13.7	84	11.1	5	11	270	0.00	1021.812	102	0.000	1
20070908 15:45	13.8	13.8	13.8	85	11.3	3	6	247	0.00	1021.744	113	0.000	1
20070908 15:50	13.9	13.9	13.9	83	11.0	5	10	270	0.00	1021.676	133	0.000	1
20070908 15:55	13.9	13.9	13.9	83	11.1	6	11	292	0.00	1021.609	123	0.000	1
20070908 16:00	14.0	14.0	14.0	82	11.0	6	11	292	0.00	1021.507	133	0.040	1
20070908 16:05	14.1	14.1	14.1	81	10.8	6	11	270	0.00	1021.439	165	0.000	1
20070908 16:10	14.2	14.2	14.2	81	11.0	5	10	270	0.00	1021.304	155	0.000	1
20070908 16:15	14.3	14.3	14.3	79	10.7	5	8	270	0.00	1021.236	147	0.000	1
20070908 16:20	14.3	14.3	14.3	79	10.7	5	11	270	0.00	1021.202	127	0.000	1
20070908 16:25	14.3	14.3	14.3	79	10.7	6	11	292	0.00	1021.067	99	0.000	1
20070908 16:30	14.3	14.3	14.3	79	10.7	3	10	270	0.00	1021.033	94	0.000	1
20070908 16:35	14.2	14.2	14.2	80	10.8	5	10	270	0.00	1020.965	160	0.000	1
20070908 16:40	14.3	14.3	14.3	80	10.9	6	10	270	0.00	1020.931	132	0.000	1
20070908 16:45	14.4	14.4	14.4	79	10.8	5	11	270	0.00	1020.830	129	0.000	1
20070908 16:50	14.4	14.4	14.4	79	10.8	6	19	270	0.00	1020.830	151	0.000	1
20070908 16:55	14.4	14.4	14.4	80	11.0	6	16	270	0.00	1020.728	114	0.000	1
20070908 17:00	14.4	14.4	14.4	78	10.7	8	18	270	0.00	1020.694	101	0.060	1
20070908 17:05	14.4	14.4	14.4	78	10.6	8	21	270	0.00	1020.762	102	0.000	1
20070908 17:10	14.4	14.4	14.4	78	10.6	8	18	270	0.00	1020.694	124	0.000	1
20070908 17:15	14.4	14.4	14.4	79	10.8	8	16	270	0.00	1020.728	137	0.000	1
20070908 17:20	14.4	14.4	14.4	78	10.7	8	16	270	0.00	1020.694	138	0.000	1
20070908 17:25	14.4	14.4	14.4	78	10.7	6	14	292	0.00	1020.660	97	0.000	0
20070908 17:30	14.4	14.4	14.4	78	10.6	6	16	270	0.00	1020.627	89	0.000	0
20070908 17:35	14.4	14.4	14.4	79	10.8	6	11	270	0.00	1020.694	75	0.000	0
20070908 17:40	14.3	14.3	14.3	79	10.7	5	10	270	0.00	1020.525	80	0.000	0
20070908 17:45	14.3	14.3	14.3	79	10.7	6	14	270	0.00	1020.457	84	0.000	0
20070908 17:50	14.3	14.3	14.3	79	10.7	3	8	270	0.00	1020.356	84	0.000	0
20070908 17:55	14.3	14.3	14.3	80	10.9	3	8	247	0.00	1020.288	89	0.000	0
20070908 18:00	14.3	14.3	14.3	79	10.7	5	11	270	0.00	1020.288	94	0.060	0
20070908 18:05	14.3	14.3	14.3	79	10.7	6	18	270	0.00	1020.254	98	0.000	0
20070908 18:10	14.3	14.3	14.3	79	10.7	10	18	270	0.00	1020.186	126	0.000	0
20070908 18:15	14.6	14.6	14.6	78	10.8	10	19	270	0.00	1020.220	175	0.000	0
20070908 18:20	14.6	14.6	14.6	77	10.6	8	16	270	0.00	1020.186	106	0.000	0
20070908 18:25	14.6	14.6	14.6	78	10.8	5	13	270	0.00	1020.186	79	0.000	0
20070908 18:30	14.4	14.4	14.4	77	10.5	6	16	270	0.00	1020.152	55	0.000	0
20070908 18:35	14.3	14.3	14.3	77	10.3	8	18	270	0.00	1020.119	37	0.000	0
20070908 18:40	14.2	14.2	14.2	78	10.4	6	14	270	0.00	1020.085	33	0.000	0
20070908 18:45	14.1	14.1	14.1	79	10.5	5	8	270	0.00	1020.186	27	0.000	0
20070908 18:50	14.0	14.0	14.0	80	10.6	6	18	270	0.00	1020.186	21	0.000	0
20070908 18:55	13.9	13.9	13.9	80	10.5	6	10	270	0.00	1020.152	18	0.000	0
20070908 19:00	13.8	13.8	13.8	79	10.3	6	13	270	0.00	1020.152	14	0.040	0
20070908 19:05	13.8	13.8	13.8	80	10.4	6	14	270	0.00	1020.085	12	0.000	0
20070908 19:10	13.7	13.7	13.7	80	10.3	6	18	270	0.00	1020.152	11	0.000	0
20070908 19:15	13.7	13.7	13.7	80	10.3	6	16	270	0.00	1020.220	8	0.000	0
20070908 19:20	13.6	13.6	13.6	80	10.2	6	11	270	0.00	1020.220	5	0.000	0
20070908 19:25	13.6	13.6	13.6	81	10.4	6	11	270	0.00	1020.423	0	0.000	0
20070908 19:30	13.4	13.4	13.4	81	10.2	6	11	270	0.00	1020.356	0	0.000	0
20070908 19:35	13.4	13.4	13.4	82	10.4	5	8	292	0.00	1020.457	0	0.000	0
20070908 19:40	13.3	13.3	13.3	82	10.3	5	10	270	0.00	1020.491	0	0.000	0
20070908 19:45	13.3	13.3	13.3	82	10.3	3	10	292	0.00	1020.491	0	0.000	0
20070908 19:50	13.3	13.3	13.3	83	10.5	3	10	270	0.00	1020.525	0	0.000	0
20070908 19:55	13.2	13.2	13.2	83	10.4	3	6	270	0.00	1020.525	0	0.000	0
20070908 20:00	13.2	13.2	13.2	83	10.3	5	8	270	0.00	1020.627	0	0.020	0
20070908 20:05	13.2	13.2	13.2	83	10.3	5	10	292	0.00	1020.627	0	0.000	0
20070908 20:10	13.1	13.1	13.1	84	10.5	3	6	270	0.00	1020.593	0	0.000	0
20070908 20:15	13.1	13.1	13.1	84	10.4	5	14	292	0.00	1020.694	0	0.000	0
20070908 20:20	13.1	13.1	13.1	84	10.4	3	8	292	0.00	1020.660	0	0.000	0
20070908 20:25	13.0	13.0	13.0	84	10.4	10	19	270	0.00	1020.762	0	0.000	0
20070908 20:30	12.9	12.9	12.9	85	10.5	8	16	292	0.00	1020.864	0	0.000	0
20070908 20:35	12.8	12.8	12.8	86	10.5	10	18	292	0.00	1020.864	0	0.000	0
20070908 20:40	12.8	12.8	12.8	86	10.5	8	18	292	0.00	1020.897	0	0.000	0
20070908 20:45	12.7	12.7	12.7	87	10.6	8	21	292	0.00	1020.830	0	0.000	0
20070908 20:50	12.7	12.7	12.7	87	10.6	6	16	270	0.00	1020.864	0	0.000	0
20070908 20:55	12.6	12.6	12.6	87	10.5	5	16	270	0.00	1020.897	0	0.000	0
20070908 21:00	12.5	12.5	12.5	87	10.4	3	11	292	0.00	1020.897	0	0.020	0
20070908 21:05	12.5	12.5	12.5	87	10.4	5	10	292	0.00	1020.796	0	0.000	0
20070908 21:10	12.4	12.4	12.4	88	10.5	3	8	270	0.00	1020.830	0	0.000	0
20070908 21:15	12.4	12.4	12.4	88	10.5	3	10	225	0.00	1020.796	0	0.000	0
20070908 21:20	12.4	12.4	12.4	88	10.5	3	8	270	0.00	1020.728	0	0.000	0
20070908 21:25	12.3	12.3	12.3	88	10.4	5	14	247	0.00	1020.728	0	0.000	0
20070908 21:30	12.3	12.3	12.3	88	10.3	3	6	270	0.00	1020.762	0	0.000	0
20070908 21:35	12.3	12.3	12.3	89	10.5	2	6	270	0.00	1020.762	0	0.000	0
20070908 21:40	12.2	12.2	12.2	88	10.3	5	10	270	0.00	1020.830	0	0.000	0
20070908 21:45	12.2	12.2	12.2	88	10.3	5	10	270	0.00	1020.931	0	0.000	0
20070908 21:50	12.2	12.2	12.2	88	10.3	5	11	270	0.00	1020.931	0	0.000	0
20070908 21:55	12.2	12.2	12.2	88	10.3	5	8	270	0.00	1020.864	0	0.000	0
20070908 22:00	12.2	12.2	12.2	88	10.3	5	10	247	0.00	1020.864	0	0.020	0
20070908 22:05	12.2	12.2	12.2	87	10.1	5	14	270	0.00	1020.830	0	0.000	0
20070908 22:10	12.2	12.2	12.2	87	10.1	5	11	247	0.00	1020.864	0	0.000	0
20070908 22:15	12.2	12.2	12.2	87	10.1	3	8	270	0.00	1020.864	0	0.000	0
20070908 22:20	12.2	12.2	12.2	87	10.1	5	11	247	0.00	1020.897	0	0.000	0
20070908 22:25	12.2	12.2	12.2	87	10.1	5	10	247	0.00	1020.931	0	0.000	0
20070908 22:30	12.2	12.2	12.2	88	10.3	5	10	270	0.00	1021.067	0	0.000	0
20070908 22:35	12.2	12.2	12.2	89	10.4	5	10	270	0.00	1020.965	0	0.000	0
20070908 22:40	12.1	12.1	12.1	89	10.4	3	8	270	0.00	1020.931	0	0.000	0
20070908 22:45	12.1	12.1	12.1	89	10.3	3	8	247	0.00	1020.965	0	0.000	0
20070908 22:50	12.0	12.0	12.0	89	10.2	5	10	247	0.00	1020.762	0	0.000	0
20070908 22:55	12.0	12.0	12.0	90	10.4	5	10	247	0.00	1020.830	0	0.000	0
20070908 23:00	11.9	11.9	11.9	90	10.4	5	10	247	0.00	1020.830	0	0.020	0
20070908 23:05	11.9	11.9	11.9	90	10.4	3	10	247	0.00	1020.593	0	0.000	0
20070908 23:10	11.9	11.9	11.9	90	10.3	5	11	225	0.00	1020.728	0	0.000	0
20070908 23:15	11.9	11.9	11.9	90	10.3	5	14	247	0.00	1020.694	0	0.000	0
20070908 23:20	11.9	11.9	11.9	90	10.3	5	10	247	0.00	1020.694	0	0.000	0
20070908 23:25	11.8	11.8	11.8	90	10.2	5	14	247	0.00	1020.762	0	0.000	0
20070908 23:30	11.8	11.8	11.8	89	10.1	5	11	247	0.00	1020.660	0	0.000	0
20070908 23:35	11.8	11.8	11.8	90	10.2	5	10	247	0.00	1020.694	0	0.000	0
20070908 23:40	11.8	11.8	11.8	89	10.1	5	10	247	0.00	1020.660	0	0.000	0
20070908 23:45	11.8	11.8	11.8	90	10.2	5	16	247	0.00	1020.559	0	0.000	0
20070908 23:50	11.8	11.8	11.8	90	10.2	8	14	247	0.00	1020.559	0	0.000	0
20070908 23:55	11.8	11.8	11.8	90	10.2	5	11	247	0.00	1020.627	0	0.000	0
20070908 24:00	11.8	11.8	11.8	90	10.2	5	11	247	0.00	1020.627	0	0.000	0



Please note the license to use and transfer of this data:
http://creativecommons.org/licenses/by-nc-sa/3.0/deed.en

Bitte beachten sie die Lizenz zur Verwertung und Weitergabe der Daten:
http://creativecommons.org/licenses/by-nc-sa/3.0/deed.de

zurück zur Übersicht der Archivdaten (Monats und Tagesdaten)

Cookies helfen bei der Bereitstellung von Inhalten. Durch die Nutzung dieser Seiten erklärst du dich damit einverstanden, dass Cookies auf deinem Rechner gespeichert werden. Weitere Information